owner,sensor,date,latitude,longitude,vertical_datum,direction_of_sea_water_velocity,sea_water_speed,upward_sea_water_velocity,qcFlag 
TABS,ioos:station:wmo:42050:1,2005-02-01T00:00:00Z,28.8425,-94.2433,2.0,254.0488089,43.62983612,-99999.0,'11111222,11111222,99999999' 
TABS,ioos:station:wmo:42050:1,2005-02-01T00:30:00Z,28.8425,-94.2433,2.0,247.9792574,42.27385244,-99999.0,'11111222,11111222,99999999' 
TABS,ioos:station:wmo:42050:1,2005-02-01T01:00:00Z,28.8425,-94.2433,2.0,245.5892887,40.91766978,-99999.0,'11111222,11111222,99999999' 
TABS,ioos:station:wmo:42050:1,2005-02-01T01:30:00Z,28.8425,-94.2433,2.0,244.4215943,41.0200451,-99999.0,'11111222,11111222,99999999' 
TABS,ioos:station:wmo:42050:1,2005-02-01T02:00:00Z,28.8425,-94.2433,2.0,240.6480075,40.84311937,-99999.0,'11111222,11111222,99999999' 
TABS,ioos:station:wmo:42050:1,2005-02-01T02:30:00Z,28.8425,-94.2433,2.0,244.8176178,41.50456842,-99999.0,'11111222,11111222,99999999' 
TABS,ioos:station:wmo:42050:1,2005-02-01T03:00:00Z,28.8425,-94.2433,2.0,238.989268,44.25522455,-99999.0,'11111222,11111222,99999999' 
TABS,ioos:station:wmo:42050:1,2005-02-01T03:30:00Z,28.8425,-94.2433,2.0,238.7683595,50.6852444,-99999.0,'11111222,11111222,99999999' 
TABS,ioos:station:wmo:42050:1,2005-02-01T04:00:00Z,28.8425,-94.2433,2.0,238.3732249,47.59918592,-99999.0,'11111222,11111222,99999999' 
TABS,ioos:station:wmo:42050:1,2005-02-01T04:30:00Z,28.8425,-94.2433,2.0,238.7880873,45.60018531,-99999.0,'11111222,11111222,99999999' 
TABS,ioos:station:wmo:42050:1,2005-02-01T05:00:00Z,28.8425,-94.2433,2.0,241.7805983,43.69308412,-99999.0,'11111222,11111222,99999999' 
TABS,ioos:station:wmo:42050:1,2005-02-01T05:30:00Z,28.8425,-94.2433,2.0,241.3273991,43.66415693,-99999.0,'11111222,11111222,99999999' 
TABS,ioos:station:wmo:42050:1,2005-02-01T06:00:00Z,28.8425,-94.2433,2.0,243.2647178,42.23503759,-99999.0,'11111222,11111222,99999999' 
TABS,ioos:station:wmo:42050:1,2005-02-01T06:30:00Z,28.8425,-94.2433,2.0,246.9924972,41.65325918,-99999.0,'11111222,11111222,99999999' 
TABS,ioos:station:wmo:42050:1,2005-02-01T07:00:00Z,28.8425,-94.2433,2.0,246.547666,42.16290787,-99999.0,'11111222,11111222,99999999' 
TABS,ioos:station:wmo:42050:1,2005-02-01T07:30:00Z,28.8425,-94.2433,2.0,245.0903604,41.16978504,-99999.0,'11111222,11111222,99999999' 
TABS,ioos:station:wmo:42050:1,2005-02-01T08:00:00Z,28.8425,-94.2433,2.0,250.0321194,40.79216224,-99999.0,'11111222,11111222,99999999' 
TABS,ioos:station:wmo:42050:1,2005-02-01T08:30:00Z,28.8425,-94.2433,2.0,248.2338554,41.80002871,-99999.0,'11111222,11111222,99999999' 
TABS,ioos:station:wmo:42050:1,2005-02-01T09:00:00Z,28.8425,-94.2433,2.0,250.1692745,39.73631588,-99999.0,'11111222,11111222,99999999' 
TABS,ioos:station:wmo:42050:1,2005-02-01T09:30:00Z,28.8425,-94.2433,2.0,248.6807272,39.47094374,-99999.0,'11111222,11111222,99999999' 
TABS,ioos:station:wmo:42050:1,2005-02-01T10:00:00Z,28.8425,-94.2433,2.0,254.7431751,38.04063748,-99999.0,'11111222,11111222,99999999' 
TABS,ioos:station:wmo:42050:1,2005-02-01T10:30:00Z,28.8425,-94.2433,2.0,253.2837584,39.63485335,-99999.0,'11111222,11111222,99999999' 
TABS,ioos:station:wmo:42050:1,2005-02-01T11:00:00Z,28.8425,-94.2433,2.0,256.0288658,38.18968447,-99999.0,'11111222,11111222,99999999' 
TABS,ioos:station:wmo:42050:1,2005-02-01T11:30:00Z,28.8425,-94.2433,2.0,254.1869981,39.12039366,-99999.0,'11111222,11111222,99999999' 
TABS,ioos:station:wmo:42050:1,2005-02-01T12:00:00Z,28.8425,-94.2433,2.0,255.3306466,39.0942758,-99999.0,'11111222,11111222,99999999' 
TABS,ioos:station:wmo:42050:1,2005-02-01T12:30:00Z,28.8425,-94.2433,2.0,254.4801802,39.35488915,-99999.0,'11111222,11111222,99999999' 
TABS,ioos:station:wmo:42050:1,2005-02-01T13:00:00Z,28.8425,-94.2433,2.0,255.0900771,33.7357733,-99999.0,'11111222,11111222,99999999' 
TABS,ioos:station:wmo:42050:1,2005-02-01T13:30:00Z,28.8425,-94.2433,2.0,257.5609826,35.14494701,-99999.0,'11111222,11111222,99999999' 
TABS,ioos:station:wmo:42050:1,2005-02-01T14:00:00Z,28.8425,-94.2433,2.0,255.7839761,34.08369845,-99999.0,'11111222,11111222,99999999' 
TABS,ioos:station:wmo:42050:1,2005-02-01T14:30:00Z,28.8425,-94.2433,2.0,249.8506419,33.9369371,-99999.0,'11111222,11111222,99999999' 
TABS,ioos:station:wmo:42050:1,2005-02-01T15:00:00Z,28.8425,-94.2433,2.0,249.2601097,32.16424257,-99999.0,'11111222,11111222,99999999' 
TABS,ioos:station:wmo:42050:1,2005-02-01T15:30:00Z,28.8425,-94.2433,2.0,244.8677466,36.11932447,-99999.0,'11111222,11111222,99999999' 
TABS,ioos:station:wmo:42050:1,2005-02-01T16:00:00Z,28.8425,-94.2433,2.0,241.6248259,36.67639295,-99999.0,'11111222,11111222,99999999' 
TABS,ioos:station:wmo:42050:1,2005-02-01T16:30:00Z,28.8425,-94.2433,2.0,244.2604943,35.36932569,-99999.0,'11111222,11111222,99999999' 
TABS,ioos:station:wmo:42050:1,2005-02-01T17:00:00Z,28.8425,-94.2433,2.0,243.7172301,38.0762288,-99999.0,'11111222,11111222,99999999' 
TABS,ioos:station:wmo:42050:1,2005-02-01T17:30:00Z,28.8425,-94.2433,2.0,247.5568782,36.82940673,-99999.0,'11111222,11111222,99999999' 
TABS,ioos:station:wmo:42050:1,2005-02-01T18:00:00Z,28.8425,-94.2433,2.0,248.6404246,36.57192913,-99999.0,'11111222,11111222,99999999' 
TABS,ioos:station:wmo:42050:1,2005-02-01T18:30:00Z,28.8425,-94.2433,2.0,249.1552024,35.57861858,-99999.0,'11111222,11111222,99999999' 
TABS,ioos:station:wmo:42050:1,2005-02-01T19:00:00Z,28.8425,-94.2433,2.0,249.3084836,38.71731912,-99999.0,'11111222,11111222,99999999' 
TABS,ioos:station:wmo:42050:1,2005-02-01T19:30:00Z,28.8425,-94.2433,2.0,249.9113522,35.84036412,-99999.0,'11111222,11111222,99999999' 
TABS,ioos:station:wmo:42050:1,2005-02-01T20:00:00Z,28.8425,-94.2433,2.0,251.7554691,35.1362619,-99999.0,'11111222,11111222,99999999' 
TABS,ioos:station:wmo:42050:1,2005-02-01T20:30:00Z,28.8425,-94.2433,2.0,255.012177,34.91781494,-99999.0,'11111222,11111222,99999999' 
TABS,ioos:station:wmo:42050:1,2005-02-01T21:00:00Z,28.8425,-94.2433,2.0,253.9333664,29.3045679,-99999.0,'11111222,11111222,99999999' 
TABS,ioos:station:wmo:42050:1,2005-02-01T22:00:00Z,28.8425,-94.2433,2.0,255.4885535,32.48633713,-99999.0,'11111222,11111222,99999999' 
TABS,ioos:station:wmo:42050:1,2005-02-01T22:30:00Z,28.8425,-94.2433,2.0,253.7860908,27.00400896,-99999.0,'11111222,11111222,99999999' 
TABS,ioos:station:wmo:42050:1,2005-02-01T23:00:00Z,28.8425,-94.2433,2.0,254.7099115,27.6071603,-99999.0,'11111222,11111222,99999999' 
TABS,ioos:station:wmo:42050:1,2005-02-01T23:30:00Z,28.8425,-94.2433,2.0,255.3787393,28.76137166,-99999.0,'11111222,11111222,99999999' 
TABS,ioos:station:wmo:42050:1,2005-02-02T00:00:00Z,28.8425,-94.2433,2.0,259.4324367,24.81077588,-99999.0,'11111222,11111222,99999999' 
TABS,ioos:station:wmo:42050:1,2005-02-02T00:30:00Z,28.8425,-94.2433,2.0,254.0902619,30.57097316,-99999.0,'11111222,11111222,99999999' 
TABS,ioos:station:wmo:42050:1,2005-02-02T01:00:00Z,28.8425,-94.2433,2.0,253.7588847,28.24720163,-99999.0,'11111222,11111222,99999999' 
TABS,ioos:station:wmo:42050:1,2005-02-02T01:30:00Z,28.8425,-94.2433,2.0,249.559782,30.00941186,-99999.0,'11111222,11111222,99999999' 
TABS,ioos:station:wmo:42050:1,2005-02-02T02:00:00Z,28.8425,-94.2433,2.0,248.0360731,31.49591243,-99999.0,'11111222,11111222,99999999' 
TABS,ioos:station:wmo:42050:1,2005-02-02T02:30:00Z,28.8425,-94.2433,2.0,238.7184955,33.12546,-99999.0,'11111222,11111222,99999999' 
TABS,ioos:station:wmo:42050:1,2005-02-02T03:00:00Z,28.8425,-94.2433,2.0,235.6934824,34.56259394,-99999.0,'11111222,11111222,99999999' 
TABS,ioos:station:wmo:42050:1,2005-02-02T03:30:00Z,28.8425,-94.2433,2.0,235.6684373,34.45181272,-99999.0,'11111222,11111222,99999999' 
TABS,ioos:station:wmo:42050:1,2005-02-02T04:00:00Z,28.8425,-94.2433,2.0,231.9865732,39.29582166,-99999.0,'11111222,11111222,99999999' 
TABS,ioos:station:wmo:42050:1,2005-02-02T04:30:00Z,28.8425,-94.2433,2.0,230.2817064,42.70675122,-99999.0,'11111222,11111222,99999999' 
TABS,ioos:station:wmo:42050:1,2005-02-02T05:00:00Z,28.8425,-94.2433,2.0,231.4831803,41.83127299,-99999.0,'11111222,11111222,99999999' 
TABS,ioos:station:wmo:42050:1,2005-02-02T05:30:00Z,28.8425,-94.2433,2.0,228.9892078,40.85663961,-99999.0,'11111222,11111222,99999999' 
TABS,ioos:station:wmo:42050:1,2005-02-02T06:00:00Z,28.8425,-94.2433,2.0,226.7909226,38.00434712,-99999.0,'11111222,11111222,99999999' 
TABS,ioos:station:wmo:42050:1,2005-02-02T06:30:00Z,28.8425,-94.2433,2.0,231.198819,38.69997545,-99999.0,'11111222,11111222,99999999' 
TABS,ioos:station:wmo:42050:1,2005-02-02T07:00:00Z,28.8425,-94.2433,2.0,231.623475,34.38988369,-99999.0,'11111222,11111222,99999999' 
TABS,ioos:station:wmo:42050:1,2005-02-02T07:30:00Z,28.8425,-94.2433,2.0,232.0673226,35.91817507,-99999.0,'11111222,11111222,99999999' 
TABS,ioos:station:wmo:42050:1,2005-02-02T08:00:00Z,28.8425,-94.2433,2.0,237.4892126,32.46793649,-99999.0,'11111222,11111222,99999999' 
TABS,ioos:station:wmo:42050:1,2005-02-02T08:30:00Z,28.8425,-94.2433,2.0,240.9688772,30.35365711,-99999.0,'11111222,11111222,99999999' 
TABS,ioos:station:wmo:42050:1,2005-02-02T09:00:00Z,28.8425,-94.2433,2.0,241.9923969,27.89707691,-99999.0,'11111222,11111222,99999999' 
TABS,ioos:station:wmo:42050:1,2005-02-02T09:30:00Z,28.8425,-94.2433,2.0,243.3320768,27.49473586,-99999.0,'11111222,11111222,99999999' 
TABS,ioos:station:wmo:42050:1,2005-02-02T10:00:00Z,28.8425,-94.2433,2.0,243.4040812,25.19601754,-99999.0,'11111222,11111222,99999999' 
TABS,ioos:station:wmo:42050:1,2005-02-02T10:30:00Z,28.8425,-94.2433,2.0,259.2457259,22.02684045,-99999.0,'11111222,11111222,99999999' 
TABS,ioos:station:wmo:42050:1,2005-02-02T11:00:00Z,28.8425,-94.2433,2.0,248.0618507,21.06533883,-99999.0,'11111222,11111222,99999999' 
TABS,ioos:station:wmo:42050:1,2005-02-02T11:30:00Z,28.8425,-94.2433,2.0,258.6304732,22.77694009,-99999.0,'11111222,11111222,99999999' 
TABS,ioos:station:wmo:42050:1,2005-02-02T12:00:00Z,28.8425,-94.2433,2.0,263.8985062,16.93592631,-99999.0,'11111222,11111222,99999999' 
TABS,ioos:station:wmo:42050:1,2005-02-02T12:30:00Z,28.8425,-94.2433,2.0,261.092195,19.18132946,-99999.0,'11111222,11111222,99999999' 
TABS,ioos:station:wmo:42050:1,2005-02-02T13:00:00Z,28.8425,-94.2433,2.0,266.3857068,19.03785702,-99999.0,'11111222,11111222,99999999' 
TABS,ioos:station:wmo:42050:1,2005-02-02T13:30:00Z,28.8425,-94.2433,2.0,264.378219,17.25297076,-99999.0,'11111222,11111222,99999999' 
TABS,ioos:station:wmo:42050:1,2005-02-02T14:00:00Z,28.8425,-94.2433,2.0,253.6688789,14.29681083,-99999.0,'11111222,11111222,99999999' 
TABS,ioos:station:wmo:42050:1,2005-02-02T14:30:00Z,28.8425,-94.2433,2.0,255.0288809,15.01980359,-99999.0,'11111222,11111222,99999999' 
TABS,ioos:station:wmo:42050:1,2005-02-02T15:00:00Z,28.8425,-94.2433,2.0,253.1662165,15.95359834,-99999.0,'11111222,11111222,99999999' 
TABS,ioos:station:wmo:42050:1,2005-02-02T15:30:00Z,28.8425,-94.2433,2.0,243.2939444,14.57473499,-99999.0,'11111222,11111222,99999999' 
TABS,ioos:station:wmo:42050:1,2005-02-02T16:00:00Z,28.8425,-94.2433,2.0,243.0249767,15.01334406,-99999.0,'11111222,11111222,99999999' 
TABS,ioos:station:wmo:42050:1,2005-02-02T16:30:00Z,28.8425,-94.2433,2.0,245.3324876,15.93401707,-99999.0,'11111222,11111222,99999999' 
TABS,ioos:station:wmo:42050:1,2005-02-02T17:00:00Z,28.8425,-94.2433,2.0,231.1563111,16.08754176,-99999.0,'11111222,11111222,99999999' 
TABS,ioos:station:wmo:42050:1,2005-02-02T17:30:00Z,28.8425,-94.2433,2.0,228.2011525,15.5735834,-99999.0,'11111222,11111222,99999999' 
TABS,ioos:station:wmo:42050:1,2005-02-02T18:00:00Z,28.8425,-94.2433,2.0,226.4074225,14.96689681,-99999.0,'11111222,11111222,99999999' 
TABS,ioos:station:wmo:42050:1,2005-02-02T18:30:00Z,28.8425,-94.2433,2.0,223.9147694,15.31160671,-99999.0,'11111222,11111222,99999999' 
TABS,ioos:station:wmo:42050:1,2005-02-02T19:00:00Z,28.8425,-94.2433,2.0,225.4268574,15.17493328,-99999.0,'11111222,11111222,99999999' 
TABS,ioos:station:wmo:42050:1,2005-02-02T19:30:00Z,28.8425,-94.2433,2.0,226.8108009,14.31899438,-99999.0,'11111222,11111222,99999999' 
TABS,ioos:station:wmo:42050:1,2005-02-02T20:00:00Z,28.8425,-94.2433,2.0,222.5160738,17.78630091,-99999.0,'11111222,11111222,99999999' 
TABS,ioos:station:wmo:42050:1,2005-02-02T20:30:00Z,28.8425,-94.2433,2.0,218.5184288,15.22230272,-99999.0,'11111222,11111222,99999999' 
TABS,ioos:station:wmo:42050:1,2005-02-02T21:00:00Z,28.8425,-94.2433,2.0,231.3975478,13.96037965,-99999.0,'11111222,11111222,99999999' 
TABS,ioos:station:wmo:42050:1,2005-02-02T21:30:00Z,28.8425,-94.2433,2.0,228.9893125,14.73646158,-99999.0,'11111222,11111222,99999999' 
TABS,ioos:station:wmo:42050:1,2005-02-02T22:00:00Z,28.8425,-94.2433,2.0,220.2086461,14.73100811,-99999.0,'11111222,11111222,99999999' 
TABS,ioos:station:wmo:42050:1,2005-02-02T22:30:00Z,28.8425,-94.2433,2.0,227.7923801,9.868789186,-99999.0,'11133222,11111222,99999999' 
TABS,ioos:station:wmo:42050:1,2005-02-02T23:00:00Z,28.8425,-94.2433,2.0,244.2318935,11.24851101,-99999.0,'11111222,11111222,99999999' 
TABS,ioos:station:wmo:42050:1,2005-02-02T23:30:00Z,28.8425,-94.2433,2.0,234.8204924,10.03236762,-99999.0,'11111222,11111222,99999999' 
TABS,ioos:station:wmo:42050:1,2005-02-03T00:00:00Z,28.8425,-94.2433,2.0,240.6453953,8.914583557,-99999.0,'11133222,11111222,99999999' 
TABS,ioos:station:wmo:42050:1,2005-02-03T00:30:00Z,28.8425,-94.2433,2.0,214.6227466,10.04972636,-99999.0,'11111222,11111222,99999999' 
TABS,ioos:station:wmo:42050:1,2005-02-03T01:00:00Z,28.8425,-94.2433,2.0,229.3862674,10.26189554,-99999.0,'11111222,11111222,99999999' 
TABS,ioos:station:wmo:42050:1,2005-02-03T01:30:00Z,28.8425,-94.2433,2.0,207.3402296,11.23503449,-99999.0,'11111222,11111222,99999999' 
TABS,ioos:station:wmo:42050:1,2005-02-03T02:00:00Z,28.8425,-94.2433,2.0,226.4528905,11.98931608,-99999.0,'11111222,11111222,99999999' 
TABS,ioos:station:wmo:42050:1,2005-02-03T02:30:00Z,28.8425,-94.2433,2.0,217.0906701,11.92208874,-99999.0,'11111222,11111222,99999999' 
TABS,ioos:station:wmo:42050:1,2005-02-03T03:00:00Z,28.8425,-94.2433,2.0,212.737232,15.0150358,-99999.0,'11111222,11111222,99999999' 
TABS,ioos:station:wmo:42050:1,2005-02-03T03:30:00Z,28.8425,-94.2433,2.0,217.4521022,15.9348235,-99999.0,'11111222,11111222,99999999' 
TABS,ioos:station:wmo:42050:1,2005-02-03T04:00:00Z,28.8425,-94.2433,2.0,222.2440306,18.38482254,-99999.0,'11111222,11111222,99999999' 
TABS,ioos:station:wmo:42050:1,2005-02-03T04:30:00Z,28.8425,-94.2433,2.0,214.0925365,16.96592467,-99999.0,'11111222,11111222,99999999' 
TABS,ioos:station:wmo:42050:1,2005-02-03T05:00:00Z,28.8425,-94.2433,2.0,212.103317,17.93201048,-99999.0,'11111222,11111222,99999999' 
TABS,ioos:station:wmo:42050:1,2005-02-03T05:30:00Z,28.8425,-94.2433,2.0,214.9622511,19.10858707,-99999.0,'11111222,11111222,99999999' 
TABS,ioos:station:wmo:42050:1,2005-02-03T06:00:00Z,28.8425,-94.2433,2.0,223.2234655,17.56590163,-99999.0,'11111222,11111222,99999999' 
TABS,ioos:station:wmo:42050:1,2005-02-03T06:30:00Z,28.8425,-94.2433,2.0,218.4567317,19.85761819,-99999.0,'11111222,11111222,99999999' 
TABS,ioos:station:wmo:42050:1,2005-02-03T07:00:00Z,28.8425,-94.2433,2.0,221.6691789,21.17826244,-99999.0,'11111222,11111222,99999999' 
TABS,ioos:station:wmo:42050:1,2005-02-03T07:30:00Z,28.8425,-94.2433,2.0,225.5738395,23.28619548,-99999.0,'11111222,11111222,99999999' 
TABS,ioos:station:wmo:42050:1,2005-02-03T08:00:00Z,28.8425,-94.2433,2.0,217.6920696,22.0142681,-99999.0,'11111222,11111222,99999999' 
TABS,ioos:station:wmo:42050:1,2005-02-03T08:30:00Z,28.8425,-94.2433,2.0,228.0941632,25.54258601,-99999.0,'11111222,11111222,99999999' 
TABS,ioos:station:wmo:42050:1,2005-02-03T09:00:00Z,28.8425,-94.2433,2.0,227.9487547,29.41216755,-99999.0,'11111222,11111222,99999999' 
TABS,ioos:station:wmo:42050:1,2005-02-03T09:30:00Z,28.8425,-94.2433,2.0,231.0922008,28.18181861,-99999.0,'11111222,11111222,99999999' 
TABS,ioos:station:wmo:42050:1,2005-02-03T10:00:00Z,28.8425,-94.2433,2.0,241.2776404,24.59628631,-99999.0,'11111222,11111222,99999999' 
TABS,ioos:station:wmo:42050:1,2005-02-03T10:30:00Z,28.8425,-94.2433,2.0,241.202638,25.49262638,-99999.0,'11111222,11111222,99999999' 
TABS,ioos:station:wmo:42050:1,2005-02-03T11:00:00Z,28.8425,-94.2433,2.0,255.2397813,21.50977452,-99999.0,'11111222,11111222,99999999' 
TABS,ioos:station:wmo:42050:1,2005-02-03T11:30:00Z,28.8425,-94.2433,2.0,258.641035,18.48199123,-99999.0,'11111222,11111222,99999999' 
TABS,ioos:station:wmo:42050:1,2005-02-03T12:00:00Z,28.8425,-94.2433,2.0,269.4109459,17.52092463,-99999.0,'11111222,11111222,99999999' 
TABS,ioos:station:wmo:42050:1,2005-02-03T12:30:00Z,28.8425,-94.2433,2.0,279.5837202,19.46159552,-99999.0,'11111222,11111222,99999999' 
TABS,ioos:station:wmo:42050:1,2005-02-03T13:00:00Z,28.8425,-94.2433,2.0,291.6380406,16.24469452,-99999.0,'11111222,11111222,99999999' 
TABS,ioos:station:wmo:42050:1,2005-02-03T13:30:00Z,28.8425,-94.2433,2.0,294.3049133,15.98691027,-99999.0,'11111222,11111222,99999999' 
TABS,ioos:station:wmo:42050:1,2005-02-03T14:00:00Z,28.8425,-94.2433,2.0,274.9506816,15.29705854,-99999.0,'11111222,11111222,99999999' 
TABS,ioos:station:wmo:42050:1,2005-02-03T14:30:00Z,28.8425,-94.2433,2.0,291.2576202,17.59728388,-99999.0,'11111222,11111222,99999999' 
TABS,ioos:station:wmo:42050:1,2005-02-03T15:00:00Z,28.8425,-94.2433,2.0,284.331154,13.21109004,-99999.0,'11111222,11111222,99999999' 
TABS,ioos:station:wmo:42050:1,2005-02-03T15:30:00Z,28.8425,-94.2433,2.0,285.176796,13.40759859,-99999.0,'11111222,11111222,99999999' 
TABS,ioos:station:wmo:42050:1,2005-02-03T16:00:00Z,28.8425,-94.2433,2.0,277.806422,12.00120827,-99999.0,'11111222,11111222,99999999' 
TABS,ioos:station:wmo:42050:1,2005-02-03T16:30:00Z,28.8425,-94.2433,2.0,274.0701535,10.285937,-99999.0,'11111222,11111222,99999999' 
TABS,ioos:station:wmo:42050:1,2005-02-03T17:00:00Z,28.8425,-94.2433,2.0,277.0138541,11.4657926,-99999.0,'11111222,11111222,99999999' 
TABS,ioos:station:wmo:42050:1,2005-02-03T17:30:00Z,28.8425,-94.2433,2.0,261.5763345,11.33224161,-99999.0,'11111222,11111222,99999999' 
TABS,ioos:station:wmo:42050:1,2005-02-03T18:00:00Z,28.8425,-94.2433,2.0,248.5903307,11.39638978,-99999.0,'11111222,11111222,99999999' 
TABS,ioos:station:wmo:42050:1,2005-02-03T18:30:00Z,28.8425,-94.2433,2.0,247.8930659,11.50584634,-99999.0,'11111222,11111222,99999999' 
TABS,ioos:station:wmo:42050:1,2005-02-03T19:00:00Z,28.8425,-94.2433,2.0,247.2577318,9.390021299,-99999.0,'11133222,11111222,99999999' 
TABS,ioos:station:wmo:42050:1,2005-02-03T19:30:00Z,28.8425,-94.2433,2.0,238.6110514,9.945476359,-99999.0,'11133222,11111222,99999999' 
TABS,ioos:station:wmo:42050:1,2005-02-03T20:00:00Z,28.8425,-94.2433,2.0,235.4675353,10.00232473,-99999.0,'11111222,11111222,99999999' 
TABS,ioos:station:wmo:42050:1,2005-02-03T20:30:00Z,28.8425,-94.2433,2.0,236.8883146,10.15985236,-99999.0,'11111222,11111222,99999999' 
TABS,ioos:station:wmo:42050:1,2005-02-03T21:00:00Z,28.8425,-94.2433,2.0,234.1003656,9.209321365,-99999.0,'11133222,11111222,99999999' 
TABS,ioos:station:wmo:42050:1,2005-02-03T21:30:00Z,28.8425,-94.2433,2.0,241.0486516,10.20531724,-99999.0,'11111222,11111222,99999999' 
TABS,ioos:station:wmo:42050:1,2005-02-03T22:00:00Z,28.8425,-94.2433,2.0,234.3731356,11.24464762,-99999.0,'11111222,11111222,99999999' 
TABS,ioos:station:wmo:42050:1,2005-02-03T22:30:00Z,28.8425,-94.2433,2.0,243.43459,8.854829191,-99999.0,'11133222,11111222,99999999' 
TABS,ioos:station:wmo:42050:1,2005-02-03T23:00:00Z,28.8425,-94.2433,2.0,242.6391752,11.59736608,-99999.0,'11111222,11111222,99999999' 
TABS,ioos:station:wmo:42050:1,2005-02-03T23:30:00Z,28.8425,-94.2433,2.0,240.8556954,9.34281007,-99999.0,'11133222,11111222,99999999' 
TABS,ioos:station:wmo:42050:1,2005-02-04T00:00:00Z,28.8425,-94.2433,2.0,222.4399363,12.03282178,-99999.0,'11111222,11111222,99999999' 
TABS,ioos:station:wmo:42050:1,2005-02-04T00:30:00Z,28.8425,-94.2433,2.0,240.4350993,14.18716321,-99999.0,'11111222,11111222,99999999' 
TABS,ioos:station:wmo:42050:1,2005-02-04T01:00:00Z,28.8425,-94.2433,2.0,232.7933979,10.22017612,-99999.0,'11111222,11111222,99999999' 
TABS,ioos:station:wmo:42050:1,2005-02-04T01:30:00Z,28.8425,-94.2433,2.0,234.1782929,12.67812289,-99999.0,'11111222,11111222,99999999' 
TABS,ioos:station:wmo:42050:1,2005-02-04T02:00:00Z,28.8425,-94.2433,2.0,237.1066479,11.56384452,-99999.0,'11111222,11111222,99999999' 
TABS,ioos:station:wmo:42050:1,2005-02-04T02:30:00Z,28.8425,-94.2433,2.0,239.3850178,12.66540564,-99999.0,'11111222,11111222,99999999' 
TABS,ioos:station:wmo:42050:1,2005-02-04T03:00:00Z,28.8425,-94.2433,2.0,228.5970337,14.42511698,-99999.0,'11111222,11111222,99999999' 
TABS,ioos:station:wmo:42050:1,2005-02-04T03:30:00Z,28.8425,-94.2433,2.0,233.1437661,24.55800073,-99999.0,'11111222,11111222,99999999' 
TABS,ioos:station:wmo:42050:1,2005-02-04T04:00:00Z,28.8425,-94.2433,2.0,226.2301891,20.7442257,-99999.0,'11111222,11111222,99999999' 
TABS,ioos:station:wmo:42050:1,2005-02-04T04:30:00Z,28.8425,-94.2433,2.0,231.2508271,21.10534766,-99999.0,'11111222,11111222,99999999' 
TABS,ioos:station:wmo:42050:1,2005-02-04T05:00:00Z,28.8425,-94.2433,2.0,230.6709577,21.53782951,-99999.0,'11111222,11111222,99999999' 
TABS,ioos:station:wmo:42050:1,2005-02-04T05:30:00Z,28.8425,-94.2433,2.0,230.8095122,21.93398277,-99999.0,'11111222,11111222,99999999' 
TABS,ioos:station:wmo:42050:1,2005-02-04T06:00:00Z,28.8425,-94.2433,2.0,227.1302091,22.25389179,-99999.0,'11111222,11111222,99999999' 
TABS,ioos:station:wmo:42050:1,2005-02-04T06:30:00Z,28.8425,-94.2433,2.0,228.4710223,23.58993853,-99999.0,'11111222,11111222,99999999' 
TABS,ioos:station:wmo:42050:1,2005-02-04T07:00:00Z,28.8425,-94.2433,2.0,229.1938573,23.39718359,-99999.0,'11111222,11111222,99999999' 
TABS,ioos:station:wmo:42050:1,2005-02-04T07:30:00Z,28.8425,-94.2433,2.0,229.983615,27.18497379,-99999.0,'11111222,11111222,99999999' 
TABS,ioos:station:wmo:42050:1,2005-02-04T08:00:00Z,28.8425,-94.2433,2.0,229.8726848,28.30171726,-99999.0,'11111222,11111222,99999999' 
TABS,ioos:station:wmo:42050:1,2005-02-04T08:30:00Z,28.8425,-94.2433,2.0,230.7422793,27.70204686,-99999.0,'11111222,11111222,99999999' 
TABS,ioos:station:wmo:42050:1,2005-02-04T09:00:00Z,28.8425,-94.2433,2.0,230.6523722,27.85403382,-99999.0,'11111222,11111222,99999999' 
TABS,ioos:station:wmo:42050:1,2005-02-04T09:30:00Z,28.8425,-94.2433,2.0,235.7783877,27.22308212,-99999.0,'11111222,11111222,99999999' 
TABS,ioos:station:wmo:42050:1,2005-02-04T10:00:00Z,28.8425,-94.2433,2.0,241.3217124,31.17409341,-99999.0,'11111222,11111222,99999999' 
TABS,ioos:station:wmo:42050:1,2005-02-04T10:30:00Z,28.8425,-94.2433,2.0,241.1000428,26.5686507,-99999.0,'11111222,11111222,99999999' 
TABS,ioos:station:wmo:42050:1,2005-02-04T11:00:00Z,28.8425,-94.2433,2.0,253.3209898,26.61990984,-99999.0,'11111222,11111222,99999999' 
TABS,ioos:station:wmo:42050:1,2005-02-04T11:30:00Z,28.8425,-94.2433,2.0,255.0094687,32.05067394,-99999.0,'11111222,11111222,99999999' 
TABS,ioos:station:wmo:42050:1,2005-02-04T12:00:00Z,28.8425,-94.2433,2.0,257.9913505,29.60789084,-99999.0,'11111222,11111222,99999999' 
TABS,ioos:station:wmo:42050:1,2005-02-04T12:30:00Z,28.8425,-94.2433,2.0,261.3085773,25.28027888,-99999.0,'11111222,11111222,99999999' 
TABS,ioos:station:wmo:42050:1,2005-02-04T13:00:00Z,28.8425,-94.2433,2.0,265.2428107,27.73552956,-99999.0,'11111222,11111222,99999999' 
TABS,ioos:station:wmo:42050:1,2005-02-04T13:30:00Z,28.8425,-94.2433,2.0,276.8875397,27.18616744,-99999.0,'11111222,11111222,99999999' 
TABS,ioos:station:wmo:42050:1,2005-02-04T14:00:00Z,28.8425,-94.2433,2.0,281.9575047,25.00247988,-99999.0,'11111222,11111222,99999999' 
TABS,ioos:station:wmo:42050:1,2005-02-04T14:30:00Z,28.8425,-94.2433,2.0,270.956616,28.16392196,-99999.0,'11111222,11111222,99999999' 
TABS,ioos:station:wmo:42050:1,2005-02-04T15:00:00Z,28.8425,-94.2433,2.0,273.1716371,25.84958414,-99999.0,'11111222,11111222,99999999' 
TABS,ioos:station:wmo:42050:1,2005-02-04T15:30:00Z,28.8425,-94.2433,2.0,274.9475652,23.07596585,-99999.0,'11111222,11111222,99999999' 
TABS,ioos:station:wmo:42050:1,2005-02-04T16:00:00Z,28.8425,-94.2433,2.0,272.2505658,20.37571103,-99999.0,'11111222,11111222,99999999' 
TABS,ioos:station:wmo:42050:1,2005-02-04T16:30:00Z,28.8425,-94.2433,2.0,278.0686967,19.66465103,-99999.0,'11111222,11111222,99999999' 